SCP
0 0 0 0 0 0 0 0 0 0 0 0 0 0 0 0 0 0 0 0 0 0 0 0 0 0 0 0 0 0 0 0 0 0 0 0 0 0 0 0 0 0 0
0 0 0 0 0 0 0 0 0 0 0 0 0 0 0 0 0 0 0 0 0 0 0 0 0 0 0 0 0 0 0 0 0 0 0 0 0 0 0 0 0 0 0
0 0 0 0 0 0 0 0 0 0 0 0 0 0 0 0 0 0 0 0 0 0 0 0 0 0 0 0 0 0 0 0 0 0 0 0 0 0 0 0 0 0 0
0 0 0 0 0 0 0 0 0 0 0 0 0 0 0 0 0 0 0 0 0 0 0 0 0 0 0 0 0 0 0 0 0 0 0 0 0 0 0 0 0 0 0
0 0 0 0 0 0 0 0 0 0 0 0 0 0 0 0 0 0 0 0 0 0 0 0 0 0 0 0 0 0 0 0 0 0 0 0 0 0 0 0 0 0 0
0 0 0 0 0 0 0 0 0 0 0 0 0 0 0 0 0 0 0 0 0 0 0 0 0 0 0 0 0 0 0 0 0 0 0 0 0 0 0 0 0 0 0
0 0 0 0 0 0 0 0 0 0 0 0 0 0 0 0 0 0 0 0 0 0 0 0 0 0 0 0 0 0 0 0 0 0 0 0 0 0 0 0 0 0 0
0 0 0 0 0 0 0 0 0 0 0 0 0 0 0 0 0 0 0 0 0 0 0 0 0 0 0 0 0 0 0 0 0 0 0 0 0 0 0 0 0 0 0
0 0 0 0 0 0 0 0 0 0 0 0 0 0 0 0 0 0 0 0 0 0 0 0 0 0 0 0 0 0 0 0 0 0 0 0 0 0 0 0 0 0 0
0 0 0 0 0 0 0 0 0 0 0 0 0 0 0 0 0 0 0 0 0 0 0 0 0 0 0 0 0 0 0 0 0 0 0 0 0 0 0 0 0 0 0
0 0 0 0 0 0 0 0 0 0 0 0 0 0 0 0 0 0 0 0 0 0 0 0 0 0 0 0 0 0 0 0 0 0 0 0 0 0 0 0 0 0 0
0 0 0 0 0 0 0 0 0 0 0 0 0 0 0 0 0 0 0 0 0 0 0 0 0 0 0 0 0 0 0 0 0 0 0 0 0 0 0 0 0 0 0
0 0 0 0 0 0 0 0 0 0 0 0 0 0 0 0 0 0 0 0 0 0 0 0 0 0 0 0 0 0 0 0 0 0 0 0 0 0 0 0 0 0 0
0 0 0 0 0 0 0 0 0 0 0 0 0 0 0 0 0 0 0 0 0 0 0 0 0 0 0 0 0 0 0 0 0 0 0 0 0 0 0 0 0 0 0
0 0 0 0 0 0 0 0 0 0 0 0 0 0 0 0 0 0 0 0 0 0 0 0 0 0 0 0 0 0 0 0 0 0 0 0 0 0 0 0 0 0 0
0 0 0 0 0 0 0 0 0 0 0 0 0 0 0 0 0 0 0 0 0 0 0 0 0 0 0 0 0 0 0 0 0 0 0 0 0 0 0 0 0 0 0
0 0 0 0 0 0 0 0 0 0 0 0 0 0 0 0 0 0 0 0 0 0 0 0 0 0 0 0 0 0 0 0 0 0 0 0 0 0 0 0 0 0 0
0 0 0 0 0 0 0 0 0 0 0 0 0 0 0 0 0 0 0 0 0 0 0 0 0 0 0 0 0 0 0 0 0 0 0 0 0 0 0 0 0 0 0
0 0 0 0 0 0 0 0 0 0 0 0 0 0 0 0 0 0 0 0 0 0 0 0 0 0 0 0 0 0 0 0 0 0 0 0 0 0 0 0 0 0 0
0 0 0 0 0 0 0 0 0 0 0 0 0 0 0 0 0 0 0 0 0 0 0 0 0 0 0 0 0 0 0 0 0 0 0 0 0 0 0 0 0 0 0
0 0 0 0 0 0 0 0 0 0 0 0 0 0 0 0 0 0 0 0 0 0 0 0 0 0 0 0 0 0 0 0 0 0 0 0 0 0 0 0 0 0 0
0 0 0 0 0 0 0 0 0 0 0 0 0 0 0 0 0 0 0 0 0 0 0 0 0 0 0 0 0 0 0 0 0 0 0 0 0 0 0 0 0 0 0
0 0 0 0 0 0 0 0 0 0 0 0 0 0 0 0 0 0 0 0 0 0 0 0 0 0 0 0 0 0 0 0 0 0 0 0 0 0 0 0 0 0 0
0 0 0 0 0 0 0 0 0 0 0 0 0 0 0 0 0 0 0 0 0 0 0 0 0 0 0 0 0 0 0 0 0 0 0 0 0 0 0 0 0 0 0
0 0 0 0 0 0 0 0 0 0 0 0 0 0 0 0 0 0 0 0 0 0 0 0 0 0 0 0 0 0 0 0 0 0 0 0 0 0 0 -0 0 0 0
0 0 0 0 0 0 0 0 0 0 0 0 0 0 0 0 0 0 0 0 0 0 0 0 0 0 0 0 0 0 0 0 0 0 0 0 0 0 -0 -0 0 0 0
Wind_Speed
1 1 1 1 1 1 1 1 1 1 0 0 0 0 0 0 1 1 1 2 2 1 0 1 1 1 1 0 1 2 2 2 3 3 3 3 3 3 4 3 3 4 4
1 1 1 1 1 1 1 1 1 1 0 0 0 0 1 1 1 1 1 1 2 1 1 1 1 1 1 1 0 1 1 2 2 3 3 3 3 4 4 4 4 4 4
1 1 1 1 1 1 1 1 1 1 0 0 0 1 0 1 0 0 1 1 1 1 2 1 1 2 1 1 0 0 1 2 2 2 3 3 3 4 4 4 4 5 5
1 1 1 1 1 1 1 1 1 1 0 0 1 1 0 0 1 1 1 1 1 1 0 1 1 1 1 2 1 1 1 2 2 2 3 3 4 4 4 4 4 5 5
2 1 1 1 1 1 1 1 1 1 1 1 1 0 0 1 1 1 1 1 1 1 1 1 0 1 1 2 2 2 2 2 3 3 4 4 4 5 5 5 5 5 5
2 2 1 1 1 1 1 1 1 1 1 1 0 1 1 1 1 1 2 1 1 1 0 0 1 2 2 2 3 3 3 4 4 4 4 5 5 6 6 5 5 6 6
2 2 2 2 1 2 2 2 1 1 1 1 0 1 1 2 2 1 1 1 1 1 1 1 1 0 1 3 4 4 5 5 5 5 5 6 6 6 7 6 6 6 5
3 3 3 3 2 2 2 2 2 1 1 1 1 0 1 2 2 2 1 2 2 1 1 2 1 1 1 1 3 5 6 6 6 6 6 6 6 7 7 7 5 5 5
3 3 3 3 3 3 3 3 3 3 2 2 1 1 1 2 2 1 3 2 2 1 2 2 2 2 2 1 2 4 6 7 7 8 7 8 8 8 8 6 5 6 6
3 3 3 3 3 3 3 3 3 2 2 2 2 2 1 1 1 2 2 2 2 2 2 2 3 3 2 2 2 3 4 6 7 7 8 8 8 7 6 6 7 7 7
3 3 3 3 3 3 3 3 3 3 3 3 3 2 2 1 1 2 3 2 2 3 3 3 3 3 3 3 2 3 3 5 6 7 7 6 7 7 7 8 8 8 9
3 3 3 3 3 3 3 3 4 4 4 3 3 3 2 2 3 3 3 3 3 3 3 3 3 3 3 3 3 3 4 4 5 5 6 6 6 7 8 9 9 9 10
2 4 4 3 3 3 3 3 4 4 5 5 4 4 3 3 2 2 2 2 2 2 2 3 3 3 3 3 3 4 4 5 6 6 7 7 7 7 8 9 10 10 10
3 3 3 3 3 3 4 4 3 4 4 5 5 5 4 4 3 3 3 2 2 3 3 4 2 3 3 3 4 5 3 6 7 7 7 7 8 8 8 9 10 10 11
2 2 3 2 2 2 3 3 3 4 4 5 5 5 5 4 3 3 3 3 4 4 5 4 3 3 3 3 4 3 3 5 7 8 8 8 9 9 9 9 10 11 11
2 2 2 3 3 2 2 2 3 3 4 4 4 5 5 4 4 4 4 4 4 5 5 3 3 2 2 3 4 3 4 6 8 9 9 9 9 9 10 10 11 11 12
2 2 2 2 3 2 2 2 2 3 4 4 4 5 6 5 4 4 4 4 5 4 6 4 2 2 3 3 3 3 3 4 4 8 10 10 10 10 10 11 11 12 12
1 1 1 2 2 2 2 3 3 3 4 4 5 5 6 4 5 4 4 5 5 5 5 6 3 2 3 3 3 3 3 3 4 7 10 10 10 11 10 11 11 12 12
1 1 1 2 2 2 2 2 3 3 4 4 4 5 5 4 6 4 5 5 4 4 4 5 4 2 2 2 2 3 3 3 4 5 8 9 10 11 11 11 11 11 11
1 1 1 1 2 1 2 2 2 3 3 4 4 4 5 5 6 5 5 5 4 4 4 4 4 3 2 2 2 3 3 3 3 3 5 6 8 10 11 12 11 11 11
1 1 1 1 1 1 1 2 2 3 3 4 4 4 4 4 5 5 5 4 4 4 3 4 4 3 3 2 3 2 4 3 3 2 2 3 4 4 6 9 10 11 12
1 1 1 1 1 1 2 3 2 3 3 4 4 4 3 3 4 6 6 5 5 5 5 4 4 5 5 4 3 3 3 3 4 2 2 4 3 5 4 4 9 11 12
1 1 1 1 1 2 3 3 4 3 3 4 4 3 3 2 2 3 4 5 5 6 6 5 5 7 5 4 3 4 4 4 5 2 2 5 3 5 4 5 10 11 12
1 1 1 1 1 2 3 3 3 3 3 3 3 3 3 3 2 2 2 2 3 4 5 5 5 6 4 3 4 5 5 4 4 2 2 4 3 4 4 4 8 10 11
1 1 1 1 2 3 3 4 3 2 2 3 3 3 3 3 4 3 2 3 3 4 4 5 5 5 6 6 3 2 2 2 4 3 2 2 3 3 3 3 5 9 10
1 1 1 1 2 2 4 4 3 1 2 3 3 3 3 4 4 4 3 3 4 4 2 2 3 4 4 3 4 2 2 3 3 3 1 1 1 1 3 2 2 3 4
Wind_Direction
151 145 155 152 160 153 153 163 166 125 110 132 79 102 194 74 83 82 83 73 60 39 237 213 201 226 228 284 32 35 25 24 14 355 345 330 326 319 326 322 319 319 323
151 157 167 155 164 143 139 148 175 150 182 162 228 241 189 153 137 127 115 96 66 35 319 272 232 234 227 204 87 46 33 12 2 359 345 338 333 332 335 329 318 321 322
152 154 157 149 146 143 150 154 155 140 178 166 228 240 185 172 153 150 133 140 152 64 27 336 264 235 243 250 267 34 352 339 340 348 347 340 331 322 320 322 318 312 311
141 149 154 161 171 161 164 162 150 132 166 222 253 237 181 176 199 207 186 166 159 162 98 45 342 263 256 256 253 274 298 310 332 346 343 334 328 319 307 308 309 312 306
156 147 154 168 175 162 164 172 160 174 196 224 250 247 227 205 218 207 198 181 148 141 160 141 316 320 296 288 279 276 290 297 310 323 323 323 324 325 310 299 294 300 299
157 142 151 166 172 153 158 164 179 211 195 181 247 270 257 227 208 200 206 195 172 164 147 155 221 277 288 290 295 296 295 287 289 298 304 304 302 308 306 304 302 298 298
169 160 162 173 174 175 186 182 177 203 205 145 106 301 293 245 214 209 206 202 194 185 170 190 211 239 280 278 283 286 288 291 292 293 297 298 294 296 296 292 298 299 300
183 182 173 182 182 180 191 190 179 193 191 168 162 161 301 302 277 233 214 218 223 203 203 207 201 221 246 255 281 277 281 286 291 293 294 296 297 298 300 295 297 300 303
185 186 190 184 184 182 195 204 202 190 193 208 189 168 187 238 288 260 227 217 214 222 230 221 225 230 234 233 253 267 278 282 284 285 288 291 292 293 296 285 286 293 298
193 195 199 197 193 193 200 209 204 202 184 197 226 231 213 173 182 285 284 241 218 224 227 235 232 229 229 233 246 265 275 280 286 286 287 288 288 291 290 290 288 289 293
198 202 201 207 207 203 202 205 200 211 206 200 196 203 231 251 222 207 264 272 261 239 226 226 227 229 224 222 229 246 257 264 271 278 283 288 290 289 289 292 294 292 292
200 205 206 213 216 211 209 209 207 214 217 214 213 205 195 200 211 211 237 256 260 251 234 228 224 223 219 215 227 241 249 255 262 273 278 282 286 289 289 289 291 293 295
208 211 209 209 218 217 213 208 209 219 219 214 215 219 219 223 208 205 225 250 263 266 240 236 225 217 216 211 221 229 245 248 258 268 272 276 281 286 286 285 285 289 291
208 205 207 210 220 223 217 207 214 219 221 220 223 221 225 226 218 214 211 217 265 269 247 245 234 214 211 208 218 220 233 243 255 263 268 272 275 278 281 282 283 285 287
202 197 199 203 221 228 223 210 219 220 222 225 226 226 226 227 223 224 220 210 210 246 257 239 229 222 215 209 224 217 223 243 254 261 264 268 270 272 274 276 279 282 283
188 190 201 206 214 217 220 224 231 228 228 232 227 227 230 226 223 222 221 224 220 226 251 240 229 233 224 233 235 222 229 252 255 258 260 263 267 269 270 272 276 280 281
176 188 200 211 216 215 216 222 232 235 233 237 236 234 237 226 226 226 223 224 225 221 246 264 245 245 223 238 249 231 233 233 245 256 261 263 265 267 269 272 275 278 280
176 184 187 213 228 225 219 227 240 239 237 244 242 236 241 234 232 230 226 230 231 224 232 254 260 248 247 245 242 240 250 252 244 257 261 266 269 269 271 273 276 278 279
169 176 188 224 237 232 227 233 237 242 243 249 249 242 244 236 238 234 229 231 233 234 229 241 259 261 263 261 261 267 258 255 256 258 259 263 267 270 272 273 275 277 277
185 208 217 228 240 239 246 249 245 251 255 259 256 251 244 237 240 235 234 233 230 230 229 235 250 263 264 263 242 262 274 258 260 263 260 260 265 269 269 272 274 275 275
210 214 212 233 253 243 252 251 250 255 260 266 263 255 251 253 254 245 238 229 223 227 234 238 249 261 261 255 246 248 262 273 257 247 259 258 261 260 260 266 270 273 273
248 215 213 223 236 260 289 266 262 260 264 263 266 268 265 257 264 261 261 251 231 223 231 237 248 251 254 251 250 250 262 276 273 247 243 264 248 258 258 250 267 269 269
276 259 252 238 255 288 302 290 274 266 265 267 271 278 283 287 271 272 272 270 257 246 234 229 240 248 256 251 244 250 248 251 257 258 251 270 250 258 264 265 268 268 271
286 275 286 275 278 300 308 304 298 265 271 276 273 269 271 283 281 275 275 275 266 260 254 242 242 253 259 260 243 246 249 262 277 269 226 264 268 267 278 269 266 268 275
289 295 307 304 291 303 314 308 304 274 278 285 288 286 277 274 281 276 261 262 272 275 275 260 260 266 272 274 266 259 256 259 272 259 212 245 273 286 283 270 267 274 279
285 300 311 315 307 314 325 321 314 291 290 294 296 291 283 278 279 268 249 246 257 267 277 282 274 279 276 272 265 240 233 242 266 271 227 230 272 319 301 279 280 294 290